sat.trackr.live / text

‹ back to catalog

STARLINK-31138

NORAD 58806 · 2024-012V

PAYLOAD ACTIVE UNKNOWN

§ Identity

Operator
Country
US
Launch date
2024-01-15
Launch site
AFETR
Launch vehicle
Mass (kg)
RCS (m²)

Purposes: comms

External: N2YO · Heavens-Above · Gunter

§ Orbital elements

Epoch: 2026-05-24T23:47:13.780608Z

Period
94.27 min
Inclination
43.0040°
Eccentricity
0.0001390
Mean motion
15.27597705 rev/d
Perigee alt
482.0 km
Apogee alt
483.9 km
Semi-major
6,861.1 km
B*
1.3985e-4
RAAN
94.4719°
Arg perigee
279.3330°
Mean anomaly
80.7364°
Rev number
13,290

§ Raw data

STARLINK-311381 58806U 24012V   26144.99113172  .00003590  00000+0  13985-3 0  99912 58806  43.0040  94.4719 0001390 279.3330  80.7364 15.27597705132905

JSON: /api/v1/satellites/58806 · /tle

For live sub-satellite position, see the globe view (requires WebGL).

§ Visibility from observer

Set your observer location to see the next 7 days of passes ≥ 10°. The values pass through the URL so the page stays shareable.

No JS? Fill the form by hand. The geolocation button needs JavaScript.